Location: Maccacari
(45.1333°N, 11.1333°E)
Time: 14:27:51
(UTC+00:00)

S-56A Canister/Altair - Pass Details

Date: 28 January 2021
Orbit: 631 x 2501 km, 38.9° (Epoch: 01 March)

Event Time Altitude Azimuth Distance (km) Brightness Sun altitude
Rises 00:53:14 0° 238° (WSW) 3,336 - -57.8°
Reaches altitude 10° 00:56:09 10° 228° (SW) 2,226 - -57.4°
Maximum altitude 01:00:26 30° 167° (SSE) 1,155 - -56.9°
Drops below altitude 10° 01:04:20 10° 105° (ESE) 2,006 - -56.5°
Sets 01:06:49 0° 94° (E) 2,947 - -56.2°
